DLH5TC LGAV-EDDM

Flight info

Callsign DLH5TC
Flight time N/A
Altitude 36000
Route KOR UL613 XANIS DCT DIMIS DCT PETAK DCT GLOMY DCT ELTIB DCT GORPA DCT BERTA DCT RASTA DCT REDBU Q112 NAPSA NAPSA4A
Aircraft A320/M-SDE3FGHIRWY/LB1

Departure

Time N/A
Airport Athens Eleftherios Venizelos International Airport (LGAV)

Arrival

Time 2026-04-30 19:16
Airport Munich Airport (EDDM)
Time Latitude Longitude Altitude Speed Heading
2026-04-30 17:39 40.46673 20.30513 36102 ft 417 kts 326°
2026-04-30 17:42 40.71867 20.11780 36108 ft 416 kts 326°
2026-04-30 17:43 40.84392 20.02415 36105 ft 414 kts 325°
2026-04-30 17:44 40.99401 19.91113 36106 ft 413 kts 325°
2026-04-30 17:47 41.21833 19.74142 36127 ft 412 kts 324°
2026-04-30 17:48 41.39129 19.60966 36099 ft 404 kts 324°
2026-04-30 17:50 41.58686 19.45951 36115 ft 407 kts 324°
2026-04-30 17:52 41.73418 19.34572 36139 ft 408 kts 324°
2026-04-30 17:54 41.94748 19.15949 36150 ft 407 kts 321°
2026-04-30 17:56 42.13584 18.98997 36160 ft 409 kts 321°
2026-04-30 17:58 42.27773 18.86095 36164 ft 411 kts 321°
2026-04-30 18:00 42.46744 18.68788 36163 ft 412 kts 322°
2026-04-30 18:01 42.58610 18.57874 36157 ft 413 kts 322°
2026-04-30 18:02 42.72876 18.44680 36174 ft 414 kts 322°
2026-04-30 18:04 42.87155 18.31423 36195 ft 414 kts 322°
2026-04-30 18:06 43.06169 18.13637 36210 ft 414 kts 322°
2026-04-30 18:08 43.22803 17.97967 36188 ft 415 kts 322°
2026-04-30 18:10 43.41045 17.80660 36184 ft 417 kts 323°
2026-04-30 18:11 43.57710 17.64630 36244 ft 418 kts 320°
2026-04-30 18:13 43.68926 17.51843 36274 ft 419 kts 319°
2026-04-30 18:14 43.80205 17.39106 36289 ft 421 kts 319°
2026-04-30 18:15 43.93807 17.23665 36309 ft 422 kts 319°
2026-04-30 18:16 44.02876 17.13292 36314 ft 423 kts 319°
2026-04-30 18:17 44.07418 17.08097 36310 ft 423 kts 320°
2026-04-30 18:18 44.14236 17.00278 36325 ft 424 kts 320°
2026-04-30 18:18 44.18782 16.95050 36324 ft 424 kts 320°
2026-04-30 18:19 44.23322 16.89804 36325 ft 424 kts 320°
2026-04-30 18:19 44.27861 16.84547 36325 ft 424 kts 320°
2026-04-30 18:20 44.32544 16.79535 36324 ft 424 kts 324°
2026-04-30 18:20 44.37403 16.74846 36318 ft 425 kts 324°
2026-04-30 18:21 44.42269 16.70142 36325 ft 425 kts 324°
2026-04-30 18:21 44.47130 16.65429 36326 ft 425 kts 324°
2026-04-30 18:22 44.51998 16.60683 36331 ft 426 kts 324°
2026-04-30 18:22 44.59296 16.53564 36328 ft 426 kts 325°
2026-04-30 18:23 44.64133 16.48845 36330 ft 426 kts 325°
2026-04-30 18:23 44.68997 16.44085 36330 ft 426 kts 325°
2026-04-30 18:24 44.76318 16.36893 36336 ft 426 kts 325°
2026-04-30 18:25 44.81155 16.32130 36332 ft 427 kts 325°
2026-04-30 18:25 44.88445 16.24931 36339 ft 427 kts 325°
2026-04-30 18:26 44.95742 16.17706 36329 ft 427 kts 325°
2026-04-30 18:27 45.03035 16.10458 36342 ft 427 kts 325°
2026-04-30 18:28 45.10332 16.03188 36345 ft 428 kts 325°
2026-04-30 18:28 45.17631 15.95894 36348 ft 428 kts 326°
2026-04-30 18:29 45.27363 15.86137 36354 ft 428 kts 326°
2026-04-30 18:30 45.37087 15.76328 36359 ft 428 kts 326°
2026-04-30 18:31 45.44380 15.68947 36364 ft 429 kts 326°
2026-04-30 18:32 45.51669 15.61554 36368 ft 429 kts 326°
2026-04-30 18:33 45.58960 15.54140 36365 ft 429 kts 326°
2026-04-30 18:33 45.66243 15.46688 36367 ft 429 kts 326°
2026-04-30 18:34 45.73522 15.39226 36359 ft 429 kts 326°
2026-04-30 18:35 45.78362 15.34244 36356 ft 429 kts 326°
2026-04-30 18:35 45.83166 15.29173 36353 ft 429 kts 325°
2026-04-30 18:36 45.90326 15.21505 36357 ft 430 kts 325°
2026-04-30 18:37 45.97523 15.13810 36357 ft 430 kts 326°
2026-04-30 18:37 46.02327 15.08679 36363 ft 430 kts 326°
2026-04-30 18:38 46.07130 15.03535 36359 ft 430 kts 326°
2026-04-30 18:38 46.11922 14.98386 36359 ft 430 kts 326°
2026-04-30 18:39 46.16708 14.93231 36354 ft 430 kts 326°
2026-04-30 18:39 46.21498 14.88062 36348 ft 430 kts 326°
2026-04-30 18:40 46.26288 14.82878 36348 ft 430 kts 326°
2026-04-30 18:40 46.31041 14.77717 36346 ft 430 kts 326°
2026-04-30 18:41 46.35829 14.72506 36348 ft 431 kts 326°
2026-04-30 18:41 46.40623 14.67275 36347 ft 431 kts 326°
2026-04-30 18:42 46.45407 14.62046 36341 ft 431 kts 326°
2026-04-30 18:42 46.52467 14.53921 36322 ft 432 kts 324°
2026-04-30 18:45 46.78242 14.23659 36336 ft 433 kts 325°
2026-04-30 18:46 46.82930 14.18114 36344 ft 433 kts 325°
2026-04-30 18:46 46.87614 14.12583 36350 ft 433 kts 325°
2026-04-30 18:47 46.92293 14.07054 36356 ft 432 kts 326°
2026-04-30 18:47 46.96935 14.01544 36356 ft 432 kts 326°
2026-04-30 18:48 47.01591 13.95984 36355 ft 432 kts 326°
2026-04-30 18:48 47.06280 13.90390 36349 ft 432 kts 326°
2026-04-30 18:49 47.10931 13.84830 36342 ft 431 kts 326°
2026-04-30 18:49 47.15586 13.79256 36340 ft 432 kts 326°
2026-04-30 18:50 47.20209 13.73711 36336 ft 432 kts 326°
2026-04-30 18:50 47.24855 13.68112 36333 ft 432 kts 326°
2026-04-30 18:51 47.29508 13.62489 36333 ft 432 kts 326°
2026-04-30 18:51 47.31832 13.59675 36203 ft 433 kts 326°
2026-04-30 18:51 47.34156 13.56861 35956 ft 432 kts 326°
2026-04-30 18:51 47.36479 13.54049 35702 ft 432 kts 327°
2026-04-30 18:52 47.38800 13.51233 35456 ft 432 kts 327°
2026-04-30 18:52 47.41121 13.48417 35215 ft 432 kts 327°
2026-04-30 18:52 47.43440 13.45599 34977 ft 432 kts 327°
2026-04-30 18:52 47.45759 13.42774 34660 ft 431 kts 327°
2026-04-30 18:53 47.48079 13.39947 33700 ft 435 kts 328°
2026-04-30 18:53 47.49630 13.38059 33103 ft 437 kts 328°
2026-04-30 18:53 47.51987 13.35192 32165 ft 440 kts 329°
2026-04-30 18:53 47.54352 13.32323 31486 ft 440 kts 329°
2026-04-30 18:54 47.56731 13.29440 30822 ft 443 kts 329°
2026-04-30 18:54 47.59138 13.26532 30134 ft 446 kts 329°
2026-04-30 18:54 47.61531 13.23632 29391 ft 443 kts 329°
2026-04-30 18:54 47.63898 13.20749 28658 ft 438 kts 329°
2026-04-30 18:55 47.66241 13.17885 27942 ft 434 kts 329°
2026-04-30 18:55 47.70847 13.12251 26573 ft 425 kts 329°
2026-04-30 18:55 47.73122 13.09464 25909 ft 421 kts 328°
2026-04-30 18:56 47.77608 13.03967 24638 ft 414 kts 328°
2026-04-30 18:56 47.79824 13.01254 24020 ft 411 kts 328°
2026-04-30 18:56 47.82024 12.98555 23315 ft 408 kts 328°
2026-04-30 18:57 47.86381 12.93203 21909 ft 404 kts 327°
2026-04-30 18:57 47.88542 12.90544 21234 ft 402 kts 327°
2026-04-30 18:57 47.90574 12.87663 20573 ft 409 kts 315°
2026-04-30 18:58 47.93089 12.79913 19297 ft 419 kts 296°
2026-04-30 18:58 47.94119 12.75858 18684 ft 417 kts 296°
2026-04-30 18:58 47.95139 12.71810 17952 ft 415 kts 295°
2026-04-30 18:59 47.97088 12.64016 16482 ft 389 kts 295°
2026-04-30 19:00 47.99889 12.52905 14413 ft 375 kts 294°
2026-04-30 19:00 48.00806 12.49271 13693 ft 375 kts 294°
2026-04-30 19:00 48.02616 12.42046 12206 ft 363 kts 293°
2026-04-30 19:01 48.04352 12.35065 11399 ft 357 kts 292°
2026-04-30 19:01 48.05211 12.31621 11374 ft 357 kts 292°
2026-04-30 19:02 48.06945 12.24668 11381 ft 357 kts 292°
2026-04-30 19:02 48.08679 12.17710 11374 ft 357 kts 292°
2026-04-30 19:03 48.10398 12.10737 11369 ft 357 kts 292°
2026-04-30 19:03 48.12110 12.03750 11367 ft 358 kts 292°
2026-04-30 19:04 48.13825 11.96745 11364 ft 358 kts 292°
2026-04-30 19:04 48.15536 11.89744 11362 ft 359 kts 292°
2026-04-30 19:05 48.17252 11.82729 11068 ft 357 kts 292°
2026-04-30 19:05 48.18708 11.75689 10351 ft 349 kts 285°
2026-04-30 19:06 48.19772 11.68825 8989 ft 328 kts 284°
2026-04-30 19:06 48.20290 11.65537 8326 ft 320 kts 284°
2026-04-30 19:06 48.21310 11.59194 7059 ft 306 kts 284°
2026-04-30 19:07 48.22308 11.53108 5788 ft 295 kts 284°
2026-04-30 19:07 48.22787 11.50140 5196 ft 290 kts 284°
2026-04-30 19:08 48.23786 11.44331 4261 ft 285 kts 297°
2026-04-30 19:08 48.26666 11.40936 4010 ft 262 kts 356°
2026-04-30 19:08 48.28357 11.40965 4008 ft 226 kts 19°
2026-04-30 19:09 48.30691 11.42919 4027 ft 165 kts 52°
2026-04-30 19:09 48.31310 11.44190 4039 ft 142 kts 64°
2026-04-30 19:09 48.31674 11.45502 4019 ft 132 kts 76°
2026-04-30 19:10 48.31940 11.48182 4014 ft 129 kts 84°
2026-04-30 19:10 48.32155 11.50856 4018 ft 128 kts 85°
2026-04-30 19:11 48.32261 11.52183 4012 ft 128 kts 84°
2026-04-30 19:11 48.32471 11.54828 4011 ft 125 kts 84°
2026-04-30 19:11 48.32574 11.56114 3960 ft 123 kts 84°
2026-04-30 19:12 48.32674 11.57376 3862 ft 124 kts 84°
2026-04-30 19:12 48.32776 11.58662 3723 ft 124 kts 85°
2026-04-30 19:12 48.32877 11.59941 3567 ft 123 kts 84°
2026-04-30 19:13 48.33078 11.62491 3232 ft 123 kts 84°
2026-04-30 19:13 48.33280 11.65050 2907 ft 123 kts 84°
2026-04-30 19:13 48.33380 11.66325 2736 ft 123 kts 85°
2026-04-30 19:14 48.33480 11.67615 2559 ft 125 kts 85°
2026-04-30 19:14 48.33585 11.68928 2357 ft 128 kts 84°
2026-04-30 19:14 48.33688 11.70263 2167 ft 130 kts 85°
2026-04-30 19:14 48.33794 11.71632 2002 ft 133 kts 84°
2026-04-30 19:15 48.33905 11.73018 1820 ft 134 kts 84°
2026-04-30 19:15 48.34121 11.75792 1499 ft 132 kts 84°
2026-04-30 19:15 48.34209 11.76965 1480 ft 90 kts 83°
2026-04-30 19:16 48.34257 11.77572 1485 ft 46 kts 83°
2026-04-30 19:16 48.34289 11.78003 1485 ft 33 kts 84°
2026-04-30 19:16 48.34388 11.78371 1485 ft 2 kts 55°
2026-04-30 19:17 48.34394 11.78385 1477 ft 1 kts 55°
2026-04-30 19:17 48.34420 11.78439 1476 ft 19 kts 53°
2026-04-30 19:17 48.34517 11.78636 1471 ft 24 kts 53°
2026-04-30 19:18 48.34640 11.79017 1478 ft 25 kts 82°
2026-04-30 19:18 48.34665 11.79329 1485 ft 10 kts 84°
2026-04-30 19:18 48.34673 11.79448 1485 ft 12 kts 84°
2026-04-30 19:19 48.34684 11.79586 1477 ft 14 kts 83°
2026-04-30 19:19 48.34732 11.79705 1478 ft 15 kts 17°
2026-04-30 19:19 48.34866 11.79690 1484 ft 8 kts 355°
2026-04-30 19:20 48.34917 11.79683 1486 ft 7 kts 354°
2026-04-30 19:20 48.34971 11.79674 1485 ft 12 kts 353°
2026-04-30 19:20 48.35160 11.79641 1477 ft 9 kts 353°
2026-04-30 19:21 48.35170 11.79639 1482 ft 3 kts 353°
2026-04-30 19:21 48.35240 11.79709 1475 ft 6 kts 81°
2026-04-30 19:22 48.35247 11.79787 1482 ft 0 kts 83°